sat.trackr.live / text

‹ back to catalog

STARLINK-1465

NORAD 45731 · 2020-038B

PAYLOAD ACTIVE UNKNOWN

§ Identity

Operator
Country
US
Launch date
2020-06-13
Launch site
AFETR
Launch vehicle
Mass (kg)
RCS (m²)

Purposes: comms

External: N2YO · Heavens-Above · Gunter

§ Orbital elements

Epoch: 2026-05-25T06:00:02.000160Z

Period
92.04 min
Inclination
53.0445°
Eccentricity
0.0001385
Mean motion
15.64551243 rev/d
Perigee alt
373.6 km
Apogee alt
375.5 km
Semi-major
6,752.7 km
B*
-6.2938e-5
RAAN
212.3694°
Arg perigee
78.9275°
Mean anomaly
197.8677°
Rev number
594

§ Raw data

STARLINK-14651 45731U 20038B   26145.25002315 -.00006728  00000+0 -62938-4 0  99952 45731  53.0445 212.3694 0001385  78.9275 197.8677 15.64551243  5944

JSON: /api/v1/satellites/45731 · /tle

For live sub-satellite position, see the globe view (requires WebGL).

§ Visibility from observer

Set your observer location to see the next 7 days of passes ≥ 10°. The values pass through the URL so the page stays shareable.

No JS? Fill the form by hand. The geolocation button needs JavaScript.